我用 App 记录自己跑步 1 年了,下面列表展示的是 2021 的数据


2021 Journey
33 Runs
106.2 KM
7:04 Avg Pace
6 day Streak
170 Avg Heart Rate

Total Journey
33 Runs
106.2 KM
7:04 Avg Pace
6 day Streak
170 Avg Heart Rate

KMPaceBPMTimeDate
午后跑步2.06:5816513min2021-06-13 16:17:17
午后跑步3.17:0316021min2021-06-10 16:45:41
午后跑步2.67:0315118min2021-06-08 18:08:17
午后跑步3.26:4616721min2021-06-06 18:07:12
午后跑步2.26:4416414min2021-06-05 18:46:04
午后跑步3.06:4516620min2021-05-16 18:18:49
午后跑步3.06:4016920min2021-05-13 18:15:01
午后跑步3.06:4616120min2021-05-06 18:35:33
午后跑步4.36:4517429min2021-03-22 18:12:43
午后跑步4.56:3817029min2021-03-17 18:02:04
午后跑步4.36:4417429min2021-03-15 18:36:05
午后跑步4.26:4917028min2021-03-12 18:33:02
午后跑步4.56:4316330min2021-03-11 18:17:54
午后跑步4.36:4416629min2021-03-10 18:25:29
午后跑步4.66:5817432min2021-03-09 18:21:54
午后跑步3.16:2717320min2021-02-24 18:59:22
午后跑步3.06:5117320min2021-02-22 18:59:04
傍晚跑步3.06:4417720min2021-02-21 19:36:28
傍晚跑步3.26:5717222min2021-02-20 19:30:17
傍晚跑步3.06:5617620min2021-02-19 19:11:58
午后跑步3.06:5917620min2021-02-18 18:38:40
午后跑步1.66:5716311min2021-02-17 15:03:56
傍晚跑步3.07:1816621min2021-02-09 19:17:21
傍晚跑步3.17:0117621min2021-02-08 19:11:29
傍晚跑步3.07:2317822min2021-02-06 19:21:46
午后跑步3.07:1517821min2021-02-05 18:40:50
午后跑步3.07:2716922min2021-02-03 18:43:27
午后跑步3.07:4317823min2021-02-02 18:51:15
午后跑步3.07:5216823min2021-02-01 18:32:45
傍晚跑步3.17:4717924min2021-01-29 19:13:40
午后跑步3.17:5117524min2021-01-28 18:52:11
午后跑步3.08:0717524min2021-01-26 18:43:26
午后跑步3.18:2417626min2021-01-25 18:48:43